Flag for U.S.A. Weather past 2 weeks in San Diego, California, U.S.A.

Now
44 °F

Quite cool.


Feels Like: 43 °F
Forecast: 47 / 61 °F
Wind: 3 mph from Southeast

Location: San Diego - North Island

Current Time: Dec 28, 2014 at 6:41:50 AM

Latest Report: Dec 28, 2014 at 5:52 AM


Visibility: 10 mi

Pressure: 30.24 "Hg

Humidity: 43%

Dew point: 23 °F

Location of San DiegoLocation

Historic Weather in San Diego — Graph

°F

San Diego temperature yesterday

Maximum temperature yesterday: 60 °F (at 11:52 AM)
Minimum temperature yesterday: 44 °F (at 4:52 AM)
Average temperature yesterday: 52 °F

Past Weeks' High & Low Weather Summary

 TemperatureHumidityPressure
High75 °F (Dec 23, 3:52 PM)100% (Dec 22, 3:52 AM)30.32 "Hg (Dec 22, 3:52 AM)
Low41 °F (Dec 28, 4:52 AM)15% (Dec 27, 12:52 PM)29.80 "Hg (Dec 25, 3:52 PM)
Average58 °F70%30.07 "Hg
* Reported Dec 13 4:52 AM — Dec 28 4:52 AM, San Diego, Weather by CustomWeather, © 2014

Note: Actual official high and low records may vary slightly from our data, if they occured in-between our weather recording intervals... More about our weather records

Advertising

San Diego weather history for previous 24 hours

 ConditionsComfort  
Time TempWeatherWind HumidityBarometerVisibility
4:52 AM
Dec 28
41 °FQuite cool.5 mph55%30.24 "Hg10 mi
3:52 AM44 °FQuite cool.No wind41%30.26 "Hg10 mi
2:52 AM46 °FCool.No wind40%30.27 "Hg10 mi
1:52 AM44 °FQuite cool.No wind51%30.28 "Hg10 mi
12:52 AM48 °FCool.5 mph43%30.29 "Hg10 mi
11:52 PM
Dec 27
48 °FCool.5 mph50%30.29 "Hg10 mi
10:52 PM49 °FCool.5 mph50%30.30 "Hg10 mi
9:52 PM51 °FPassing clouds.No wind46%30.30 "Hg10 mi
8:52 PM50 °FPassing clouds.5 mph50%30.32 "Hg10 mi
7:52 PM54 °FPassing clouds.5 mph53%30.32 "Hg10 mi
6:52 PM53 °FPassing clouds.3 mph48%30.31 "Hg10 mi
5:52 PM57 °FPassing clouds.3 mph39%30.29 "Hg10 mi
4:52 PM59 °FPassing clouds.9 mph33%30.28 "Hg10 mi
3:52 PM59 °FPartly sunny.7 mph35%30.27 "Hg10 mi
2:52 PM60 °FPartly sunny.10 mph30%30.26 "Hg10 mi
1:52 PM60 °FPartly sunny.10 mph22%30.27 "Hg10 mi
12:52 PM60 °FScattered clouds.5 mph15%30.26 "Hg10 mi
11:52 AM60 °FScattered clouds.6 mph21%30.29 "Hg10 mi
10:52 AM58 °FPassing clouds.No wind27%30.31 "Hg10 mi
9:52 AM55 °FPassing clouds.No wind35%30.32 "Hg10 mi
8:52 AM52 °FPassing clouds.No wind40%30.30 "Hg10 mi
7:52 AM47 °FPassing clouds.No wind48%30.28 "Hg10 mi
7:02 AM46 °FSunny.No wind51%30.27 "Hg10 mi
Weather by CustomWeather, © 2014

See weather overviewHow to use our weather pages